Regional Weather Roundup
Issued by NWS Cleveland, OH

Home | Current Version | Previous Version | Text Only | Print | Product List | Glossary Off
Versions: 1 2 3 4 5 6 7 8 9 10 11 12 13 14 15 16 17 18 19 20 21 22 23 24 25 26 27 28 29 30 31 32 33 34 35 36 37 38 39 40 41 42 43 44 45 46 47 48 49 50

000
ASUS41 KCLE 040200
RWRCLE
OHIO REGIONAL WEATHER ROUNDUP
NATIONAL WEATHER SERVICE WILMINGTON, OH
1000 PM EDT SUN MAY 03 2015

NOTE: "FAIR" INDICATES FEW OR NO CLOUDS BELOW 12,000 FEET WITH NO
SIGNIFICANT WEATHER AND/OR OBSTRUCTIONS TO VISIBILITY.

OHZ001>008-015>018-024>027-034-035-043-044-040300-
   NORTHWEST OHIO

CITY           SKY/WX    TMP DP  RH WIND       PRES   REMARKS
DEFIANCE       CLEAR     67  47  48 S5        30.04R
FINDLAY        CLEAR     63  47  55 S9        30.05R
TOLEDO EXPRESS CLEAR     65  45  48 S3        30.04R
TOLEDO EXEC    CLEAR     64  45  49 S8        30.05R
LIMA           CLEAR     65  47  52 S6        30.07R
$$

OHZ009>014-019>023-028>033-038-089-040300-
   NORTHEAST OHIO

CITY           SKY/WX    TMP DP  RH WIND       PRES   REMARKS
CLE-HOPKINS    MOCLDY    65  44  46 S6        30.10R
CLE-LAKEFRONT  MOCLDY    72  44  36 S8        30.07R
CUY CO. ARPT   MOCLDY    70  46  43 S7        30.09R
LORAIN-ELYRIA  PTCLDY    67  45  45 S7        30.08R
ASHTABULA      MOCLDY    60  41  49 CALM      30.11R
AKRON-CANTON   MOCLDY    68  40  35 SW3       30.11R
WOOSTER        NOT AVBL
MANSFIELD      PTCLDY    63  44  50 S7        30.11R
YOUNGSTOWN     PTCLDY    66  42  41 S5        30.11R
$$

OHZ042-051>053-060>062-070>072-077>081-040300-
  SOUTHWEST OHIO

CITY           SKY/WX    TMP DP  RH WIND       PRES   REMARKS
CINC-COVINGTON PTCLDY    65  47  52 S5        30.10R
CINC-LUNKEN    CLEAR     60  52  74 S3        30.10R
HAMILTON       CLEAR     60  51  72 CALM      30.09R
DAYTON         NOT AVBL
WRIGHT-PAT AFB PTCLDY    65  47  51 CALM      30.09R
DAYTON GENERAL PTCLDY    67  46  47 S6        30.09R
WILMINGTON     PTCLDY    62  45  53 S3        30.11R
$$

OHZ036-037-039>041-045>050-054>059-063>069-073>076-082>088-040300-
  CENTRAL AND SOUTHEAST OHIO

CITY           SKY/WX    TMP DP  RH WIND       PRES   REMARKS
COLUMBUS       PTCLDY    68  45  43 S5        30.10R
OSU AIRPORT    CLEAR     68  43  40 SW5       30.10R
BOLTON FIELD   NOT AVBL
RICKENBACK AFB NOT AVBL
NEWARK         PTCLDY    59  50  72 CALM      30.10R
MARION         PTCLDY    59  45  59 S7        30.10R
LANCASTER      CLEAR     58  50  75 E5        30.12R
ZANESVILLE     PTCLDY    63  42  46 SE3       30.11R
NEW PHILLY     PTCLDY    63  44  50 CALM      30.12R
$$



USA.gov is the U.S. government's official web portal to all federal, state and local government web resources and services.